ACS3

Last updated on Sun Jun 21 2026 00:02:16 GMT+0000 (Coordinated Universal Time)

1 59588U 24077B 26171.36336138 .00040774 00000+0 29681-1 0 9993 2 59588 97.1691 89.4458 0082058 61.6026 299.3382 13.94333623108486
UTC large
Height (km)
Speed (km/s)
/
Latitude / Longitude
Inclination (degrees)
Orbital Period (minutes)
Azimuth
Elevation
Range (km)
Doppler Factor

Next 0 passes for location: London (51.5072 / 0.1276)

No passes found over London.
ACS3